Change the Weather History Date:

Friday, March 14, 2014

  Actual Average Record
Temperature  
Mean Temperature 46 °F 38 °F  
Max Temperature 63 °F 52 °F 80 °F (1935)
Min Temperature 28 °F 23 °F -21 °F (1880)
Degree Days  
Heating Degree Days 19 28  
Month to date heating degree days 425 414  
Since 1 July heating degree days 5616 5442  
Cooling Degree Days 0 0  
Month to date cooling degree days 0 0  
Year to date cooling degree days 0 0  
Moisture  
Dew Point 25 °F    
Average Humidity 49    
Maximum Humidity 78    
Minimum Humidity 20    
Precipitation  
Precipitation 0.00 in 0.03 in 1.00 in (1913)
Month to date precipitation 0.06 0.40  
Year to date precipitation 1.11 1.24  
Snow  
Snow 0.00 in 0.10 in 5.60 in (1913)
Month to date snowfall 0.6 2.1  
Since 1 July snowfall 23.0 23.0  
Snow Depth 0.00 in    
Sea Level Pressure  
Sea Level Pressure 29.91 in    
Wind  
Wind Speed 10 mph (West)    
Max Wind Speed 23 mph    
Max Gust Speed 31 mph    
Visibility 10 miles    
Events      
T = Trace of Precipitation, MM = Missing Value Source: NWS Daily Summary

Daily Weather History Graph

Daily Weather History Graph

Search for Another Location

Airport or City:

Trip Planner

Search our weather history database for the weather conditions in past years. The results will help you decide how hot, cold, wet, or windy it might be!

Date:

Astronomy

Mar. 14, 2014 Rise Set
Actual Time 7:55 AM CDT 7:48 PM CDT
Civil Twilight 7:28 AM CDT 8:15 PM CDT
Nautical Twilight 6:56 AM CDT 8:47 PM CDT
Astronomical Twilight 6:24 AM CDT 9:20 PM CDT
Moon 6:11 PM CDT (3/14) 6:37 AM CDT (3/14)
Length of Visible Light 12h 47m
Length of Day
11h 52m
Waxing Gibbous, 96% of the Moon is Illuminated
Mar 14
Waxing Gibbous
Mar 16
Full
Mar 23
Last Quarter
Mar 30
New
Apr 7
First Quarter

Hourly Weather History & Observations

Time (CDT) Temp. Windchill Dew Point Humidity Pressure Visibility Wind Dir Wind Speed Gust Speed Precip Events Conditions
12:04 AM 48.0 °F - 23.0 °F 37% 29.74 in 10.0 mi North 17.3 mph - N/A   Clear
12:53 AM 46.0 °F 39.9 °F 24.1 °F 42% 29.76 in 10.0 mi North 13.8 mph - N/A   Clear
1:53 AM 45.0 °F 38.5 °F 24.1 °F 44% 29.80 in 10.0 mi North 13.8 mph - N/A   Clear
2:53 AM 42.1 °F 34.9 °F 24.1 °F 49% 29.86 in 10.0 mi NNW 13.8 mph - N/A   Clear
3:53 AM 42.1 °F 36.1 °F 25.0 °F 51% 29.86 in 10.0 mi NNW 10.4 mph - N/A   Partly Cloudy
4:53 AM 34.0 °F 26.0 °F 25.0 °F 70% 29.90 in 10.0 mi West 10.4 mph - N/A   Clear
5:53 AM 30.9 °F 23.5 °F 24.1 °F 76% 29.93 in 10.0 mi West 8.1 mph - N/A   Clear
6:53 AM 32.0 °F 24.2 °F 25.0 °F 75% 29.97 in 10.0 mi WNW 9.2 mph - N/A   Clear
7:53 AM 30.9 °F 22.2 °F 25.0 °F 79% 30.01 in 10.0 mi WNW 10.4 mph - N/A   Clear
8:53 AM 34.0 °F 29.8 °F 27.0 °F 75% 30.02 in 10.0 mi WSW 4.6 mph - N/A   Clear
9:53 AM 39.9 °F 33.4 °F 28.0 °F 63% 30.04 in 10.0 mi WSW 10.4 mph - N/A   Clear
10:53 AM 46.0 °F 40.2 °F 28.0 °F 50% 30.04 in 10.0 mi West 12.7 mph - N/A   Clear
11:53 AM 52.0 °F - 28.0 °F 40% 30.00 in 10.0 mi West 10.4 mph - N/A   Clear
12:53 PM 55.9 °F - 24.1 °F 29% 29.99 in 10.0 mi West 11.5 mph - N/A   Clear
1:53 PM 59.0 °F - 21.9 °F 24% 29.96 in 10.0 mi WSW 13.8 mph 20.7 mph N/A   Clear
2:53 PM 60.1 °F - 24.1 °F 25% 29.95 in 10.0 mi West 12.7 mph 21.9 mph N/A   Clear
3:53 PM 60.1 °F - 24.1 °F 25% 29.92 in 10.0 mi West 11.5 mph - N/A   Clear
4:53 PM 62.1 °F - 23.0 °F 22% 29.91 in 10.0 mi WNW 13.8 mph 24.2 mph N/A   Clear
5:53 PM 62.1 °F - 21.9 °F 21% 29.89 in 10.0 mi WSW 11.5 mph 20.7 mph N/A   Clear
6:53 PM 59.0 °F - 25.0 °F 27% 29.88 in 10.0 mi WSW 8.1 mph - N/A   Clear
7:53 PM 55.0 °F - 23.0 °F 29% 29.90 in 10.0 mi SSW 5.8 mph - N/A   Clear
8:53 PM 45.0 °F 41.8 °F 24.1 °F 44% 29.90 in 10.0 mi South 5.8 mph - N/A   Clear
9:53 PM 41.0 °F 36.4 °F 24.1 °F 51% 29.88 in 10.0 mi South 6.9 mph - N/A   Clear
10:53 PM 45.0 °F 40.6 °F 23.0 °F 42% 29.85 in 10.0 mi South 8.1 mph - N/A   Clear
11:53 PM 46.9 °F - 23.0 °F 39% 29.83 in 10.0 mi SSW 8.1 mph - N/A   Clear